Location: Augustenthal
(51.7167°N, 10.2833°E)
Time: 20:50:28
(UTC+00:00)

Resurs 1-4 Rocket - Pass Details

Date: 18 May 2021
Orbit: 800 x 814 km, 98.6° (Epoch: 21 June)

Event Time Altitude Azimuth Distance (km) Brightness Sun altitude
Rises 23:21:59 0° 29° (NNE) 3,323 6.4 -18.5°
Reaches altitude 10° 23:25:37 10° 55° (NE) 2,387 5.0 -18.5°
Maximum altitude 23:28:15 14° 85° (E) 2,128 4.4 -18.5°
Drops below altitude 10° 23:30:52 10° 115° (ESE) 2,382 4.3 -18.4°
Enters shadow 23:31:41 - 123° (ESE) 2,547 4.4 -18.4°
